When you browse on this site, cookies collect data to enhance your experience and personalize the content and advertising you see.
Visit our Privacy Policy to learn more. By continuing to use the site, you agree to this use of cookies and data.
  • In Romania
  • List of Countries
  • For 7 days
  • Water Temperature
  • Satellite Maps
  • Weather Map
  • Weather Widgets
  • user-avatar
    Login

    Hourly Weather Lomme

    Today, 16 June, Sunday

    Time Temperature Precipitation Wind Pressure Humidity
    00:00 +13°C° 0 mm 4 mps 761 mmHg 86%
    01:00 +13°C° 0 mm 3 mps 761 mmHg 88%
    02:00 +13°C° 0 mm 3 mps 761 mmHg 90%
    03:00 +12°C° 0 mm 3 mps 761 mmHg 92%
    04:00 +13°C° 0 mm 3 mps 762 mmHg 90%
    05:00 +13°C° 0 mm 4 mps 762 mmHg 89%
    06:00 +14°C° 0 mm 4 mps 762 mmHg 87%
    07:00 +15°C° 0.1 mm 4 mps 762 mmHg 82%
    08:00 +17°C° 0.1 mm 4 mps 763 mmHg 77%
    09:00 +19°C° 0.1 mm 5 mps 763 mmHg 71%
    10:00 +19°C° 0.2 mm 5 mps 763 mmHg 69%
    11:00 +20°C° 0.2 mm 5 mps 763 mmHg 67%
    12:00 +21°C° 0.2 mm 5 mps 763 mmHg 65%
    13:00 +21°C° 0.3 mm 5 mps 763 mmHg 65%
    14:00 +21°C° 0.3 mm 5 mps 763 mmHg 65%
    15:00 +21°C° 0.3 mm 4 mps 762 mmHg 65%
    16:00 +21°C° 0.1 mm 4 mps 762 mmHg 67%
    17:00 +20°C° 0.1 mm 3 mps 763 mmHg 70%
    18:00 +20°C° 0.1 mm 3 mps 763 mmHg 72%
    19:00 +19°C° 0 mm 2 mps 763 mmHg 76%
    20:00 +18°C° 0 mm 1 mps 763 mmHg 79%
    21:00 +15°C° 0 mm 0 mps 763 mmHg 82%
    22:00 +16°C° 0 mm 1 mps 763 mmHg 84%
    23:00 +15°C° 0 mm 1 mps 763 mmHg 85%

    Tomorrow, 17 June, Monday

    Time Temperature Precipitation Wind Pressure Humidity
    00:00 +15°C° 0 mm 1 mps 763 mmHg 87%
    01:00 +15°C° 0 mm 1 mps 763 mmHg 88%
    02:00 +15°C° 0 mm 2 mps 763 mmHg 90%
    03:00 +15°C° 0 mm 2 mps 763 mmHg 91%
    04:00 +15°C° 0 mm 2 mps 763 mmHg 89%
    05:00 +16°C° 0 mm 2 mps 763 mmHg 87%
    06:00 +17°C° 0 mm 3 mps 763 mmHg 85%
    07:00 +18°C° 0 mm 3 mps 763 mmHg 79%
    08:00 +20°C° 0 mm 3 mps 763 mmHg 74%
    09:00 +21°C° 0 mm 3 mps 763 mmHg 68%
    10:00 +22°C° 0 mm 3 mps 763 mmHg 64%
    11:00 +22°C° 0 mm 3 mps 763 mmHg 60%
    12:00 +24°C° 0 mm 3 mps 763 mmHg 56%
    13:00 +24°C° 0 mm 3 mps 762 mmHg 56%
    14:00 +25°C° 0 mm 3 mps 762 mmHg 56%
    15:00 +25°C° 0 mm 3 mps 762 mmHg 56%
    16:00 +24°C° 0 mm 2 mps 761 mmHg 60%
    17:00 +23°C° 0 mm 2 mps 761 mmHg 63%
    18:00 +23°C° 0 mm 2 mps 761 mmHg 67%
    19:00 +20°C° 0 mm 2 mps 761 mmHg 73%
    20:00 +18°C° 0 mm 2 mps 761 mmHg 79%
    21:00 +16°C° 0 mm 2 mps 762 mmHg 86%
    22:00 +16°C° 0 mm 2 mps 762 mmHg 86%
    23:00 +15°C° 0 mm 1 mps 761 mmHg 86%

    Day after tomorrow, 18 June, Tuesday

    Time Temperature Precipitation Wind Pressure Humidity
    00:00 +14°C° 0 mm 1 mps 761 mmHg 86%
    01:00 +14°C° 0 mm 1 mps 761 mmHg 86%
    02:00 +14°C° 0 mm 1 mps 761 mmHg 86%
    03:00 +13°C° 0 mm 1 mps 761 mmHg 85%
    04:00 +14°C° 0 mm 1 mps 761 mmHg 82%
    05:00 +15°C° 0 mm 1 mps 761 mmHg 80%
    06:00 +16°C° 0 mm 1 mps 761 mmHg 77%
    07:00 +18°C° 0 mm 2 mps 760 mmHg 73%
    08:00 +20°C° 0 mm 2 mps 760 mmHg 70%
    09:00 +21°C° 0 mm 2 mps 760 mmHg 66%
    10:00 +23°C° 0 mm 2 mps 760 mmHg 62%
    11:00 +25°C° 0 mm 2 mps 759 mmHg 58%
    12:00 +26°C° 0 mm 2 mps 759 mmHg 54%
    13:00 +26°C° 0 mm 2 mps 759 mmHg 53%
    14:00 +27°C° 0 mm 2 mps 758 mmHg 53%
    15:00 +27°C° 0 mm 3 mps 758 mmHg 53%
    16:00 +26°C° 1 mm 2 mps 758 mmHg 60%
    17:00 +25°C° 1 mm 2 mps 758 mmHg 67%
    18:00 +23°C° 1 mm 1 mps 757 mmHg 75%
    19:00 +21°C° 0.7 mm 2 mps 757 mmHg 78%
    20:00 +20°C° 0.7 mm 2 mps 757 mmHg 81%
    21:00 +19°C° 0.7 mm 3 mps 757 mmHg 84%
    22:00 +19°C° 0.1 mm 3 mps 757 mmHg 85%
    23:00 +18°C° 0.1 mm 3 mps 756 mmHg 86%

    19 June, Wednesday

    Time Temperature Precipitation Wind Pressure Humidity
    00:00 +18°C° 0.1 mm 2 mps 756 mmHg 87%
    01:00 +18°C° 0 mm 2 mps 756 mmHg 88%
    02:00 +18°C° 0 mm 2 mps 756 mmHg 88%
    03:00 +18°C° 0 mm 2 mps 755 mmHg 88%
    04:00 +18°C° 0 mm 2 mps 755 mmHg 85%
    05:00 +19°C° 0 mm 2 mps 754 mmHg 83%
    06:00 +20°C° 0 mm 2 mps 754 mmHg 81%
    07:00 +22°C° 0.2 mm 3 mps 754 mmHg 75%
    08:00 +24°C° 0.2 mm 3 mps 754 mmHg 70%
    09:00 +26°C° 0.2 mm 4 mps 754 mmHg 65%
    10:00 +26°C° 0 mm 4 mps 753 mmHg 65%
    11:00 +27°C° 0 mm 3 mps 753 mmHg 64%
    12:00 +27°C° 0 mm 3 mps 753 mmHg 64%
    13:00 +27°C° 0.7 mm 4 mps 753 mmHg 64%
    14:00 +26°C° 0.7 mm 6 mps 753 mmHg 64%
    15:00 +26°C° 0.7 mm 7 mps 752 mmHg 64%
    16:00 +24°C° 0.1 mm 6 mps 753 mmHg 67%
    17:00 +22°C° 0.1 mm 6 mps 753 mmHg 71%
    18:00 +21°C° 0.1 mm 5 mps 753 mmHg 74%
    19:00 +20°C° 0 mm 5 mps 753 mmHg 78%
    20:00 +19°C° 0 mm 4 mps 754 mmHg 81%
    21:00 +18°C° 0 mm 4 mps 754 mmHg 84%
    22:00 +16°C° 0 mm 5 mps 754 mmHg 86%
    23:00 +16°C° 0 mm 5 mps 754 mmHg 87%

    20 June, Thursday

    Time Temperature Precipitation Wind Pressure Humidity
    00:00 +15°C° 0 mm 6 mps 754 mmHg 89%
    01:00 +15°C° 0 mm 5 mps 755 mmHg 88%
    02:00 +15°C° 0 mm 5 mps 755 mmHg 87%
    03:00 +15°C° 0 mm 5 mps 755 mmHg 86%
    04:00 +15°C° 0 mm 5 mps 756 mmHg 86%
    05:00 +15°C° 0 mm 4 mps 756 mmHg 85%
    06:00 +15°C° 0 mm 4 mps 757 mmHg 85%
    07:00 +17°C° 0.1 mm 4 mps 757 mmHg 82%
    08:00 +17°C° 0.1 mm 4 mps 758 mmHg 78%
    09:00 +18°C° 0.1 mm 4 mps 758 mmHg 75%
    10:00 +19°C° 0.1 mm 4 mps 758 mmHg 71%
    11:00 +19°C° 0.1 mm 4 mps 758 mmHg 66%
    12:00 +20°C° 0.1 mm 4 mps 759 mmHg 62%
    13:00 +20°C° 0.1 mm 4 mps 759 mmHg 61%
    14:00 +20°C° 0.1 mm 4 mps 759 mmHg 60%
    15:00 +21°C° 0.1 mm 4 mps 759 mmHg 59%
    16:00 +20°C° 0 mm 4 mps 759 mmHg 61%
    17:00 +19°C° 0 mm 4 mps 759 mmHg 64%
    18:00 +19°C° 0 mm 4 mps 759 mmHg 66%
    19:00 +17°C° 0 mm 3 mps 759 mmHg 70%
    20:00 +14°C° 0 mm 3 mps 759 mmHg 75%
    21:00 +12°C° 0 mm 3 mps 759 mmHg 79%
    22:00 +13°C° 0 mm 2 mps 759 mmHg 81%
    23:00 +12°C° 0 mm 2 mps 760 mmHg 82%

    21 June, Friday

    Time Temperature Precipitation Wind Pressure Humidity
    00:00 +12°C° 0 mm 2 mps 760 mmHg 83%
    01:00 +10°C° 0 mm 2 mps 760 mmHg 85%
    02:00 +10°C° 0 mm 2 mps 760 mmHg 87%
    03:00 +10°C° 0 mm 2 mps 760 mmHg 89%
    04:00 +12°C° 0 mm 2 mps 760 mmHg 87%
    05:00 +12°C° 0 mm 3 mps 760 mmHg 86%
    06:00 +13°C° 0 mm 3 mps 760 mmHg 85%
    07:00 +14°C° 0 mm 3 mps 761 mmHg 77%
    08:00 +17°C° 0 mm 3 mps 761 mmHg 70%
    09:00 +19°C° 0 mm 3 mps 761 mmHg 63%
    10:00 +19°C° 0.1 mm 3 mps 761 mmHg 59%
    11:00 +20°C° 0.1 mm 3 mps 761 mmHg 56%
    12:00 +20°C° 0.1 mm 3 mps 761 mmHg 53%
    13:00 +20°C° 0 mm 4 mps 761 mmHg 52%
    14:00 +20°C° 0 mm 4 mps 761 mmHg 52%
    15:00 +20°C° 0 mm 4 mps 761 mmHg 52%
    16:00 +19°C° 0 mm 4 mps 761 mmHg 55%
    17:00 +19°C° 0 mm 4 mps 761 mmHg 59%
    18:00 +18°C° 0 mm 4 mps 761 mmHg 63%
    19:00 +16°C° 0 mm 3 mps 762 mmHg 67%
    20:00 +14°C° 0 mm 3 mps 762 mmHg 72%
    21:00 +13°C° 0 mm 2 mps 762 mmHg 77%
    22:00 +13°C° 0 mm 2 mps 762 mmHg 79%
    23:00 +12°C° 0 mm 2 mps 762 mmHg 81%
    Show more